Location: Basse Occidentale du Courleau
(48.3833°N, 4.8333°W)
Time: 19:44:38
(UTC+00:00)

BREEZE-M DEB - Pass Details

Date: 05 July 2020
Orbit: 284 x 16012 km, 49.5° (Epoch: 06 August)

Event Time Altitude Azimuth Distance (km) Brightness Sun altitude
Rises 22:12:55 0° 285° (WNW) 2,461 6.9 -13.1°
Reaches altitude 10° 22:14:14 10° 283° (WNW) 1,856 6.1 -13.2°
Maximum altitude 22:17:54 75° 198° (SSW) 1,030 4.0 -13.5°
Drops below altitude 10° 22:31:43 10° 117° (ESE) 6,521 7.8 -14.6°
Sets 22:41:34 0° 117° (ESE) 9,995 8.7 -15.3°
